contact:dominique.lefevre@mio.osupytheas.fr, maurice.libes@osupytheas.fr, didier.mallarino@osupytheas.fr
Project:EMSO http://www.emso-fr.org/EMSO-France
Depth: 2436.0 m
Title:EMSO Ligure Ouest : Data MII capteur AQUADOPP
Date,Latitude,Longitude,X_East,Y_North,Z_Up,Amplitude_X,Amplitude_Y,Amplitude_Z,Batterie,SoundSpeed,Heading,Pitch,Roll,Pressure,TIS,Speed,Direction
, degrees North, degrees East, m.s-1, m.s-1,m.s-1, 1, 1, 1, Volt, m.s-1, degree, degree, degree, dbar, degree_C, m.s-1, degree
2023-01-10T00:04:03,42.805,6.029,0.004,0.011,-0.009,103.0,100.0,101.0,13.4,1505.2,321.0,-0.7,1.8,2471.183,13.28,0.011,20.0
2023-01-10T00:07:03,42.805,6.029,0.0,0.01,0.013,100.0,101.0,102.0,13.3,1505.2,334.5,-0.8,1.8,2471.179,13.29,0.01,0.0
2023-01-10T00:10:03,42.805,6.029,0.015,0.006,-0.001,100.0,102.0,101.0,13.4,1505.2,317.4,-0.8,1.8,2471.136,13.29,0.016,68.2
2023-01-10T00:13:03,42.805,6.029,-0.013,-0.002,-0.017,101.0,102.0,100.0,13.4,1505.2,316.0,-0.7,1.8,2471.093,13.29,0.013,261.3
2023-01-10T00:16:03,42.805,6.029,0.004,-0.012,0.006,101.0,101.0,102.0,13.4,1505.2,320.4,-0.8,1.8,2471.151,13.29,0.012,161.6
2023-01-10T00:19:03,42.805,6.029,0.041,0.0,-0.007,103.0,102.0,101.0,13.4,1505.2,329.0,-0.8,1.8,2471.143,13.29,0.041,90.0
2023-01-10T00:22:03,42.805,6.029,0.002,0.0,-0.006,101.0,102.0,102.0,13.4,1505.2,329.0,-0.8,1.8,2471.127,13.29,0.002,90.0
2023-01-10T00:25:03,42.805,6.029,-0.005,-0.017,-0.022,102.0,101.0,101.0,13.3,1505.2,324.9,-0.8,1.8,2471.117,13.29,0.017,196.4
2023-01-10T00:28:03,42.805,6.029,0.0,-0.004,-0.014,102.0,101.0,100.0,13.4,1505.2,324.4,-0.8,1.9,2471.124,13.29,0.004,180.0
2023-01-10T00:31:03,42.805,6.029,-0.002,0.0,-0.017,101.0,102.0,102.0,13.3,1505.2,325.8,-0.8,1.8,2471.135,13.29,0.002,270.0
2023-01-10T00:34:03,42.805,6.029,0.019,-0.007,-0.022,100.0,102.0,100.0,13.4,1505.2,317.0,-0.7,1.8,2471.083,13.29,0.02,110.2
2023-01-10T00:37:03,42.805,6.029,0.006,0.006,0.003,100.0,102.0,101.0,13.3,1505.2,325.6,-0.8,1.8,2471.101,13.29,0.008,45.0
2023-01-10T00:40:03,42.805,6.029,0.019,-0.005,-0.024,101.0,102.0,101.0,13.4,1505.2,327.9,-0.8,1.8,2471.11,13.29,0.019,104.7
2023-01-10T00:43:03,42.805,6.029,0.031,-0.005,0.018,102.0,101.0,101.0,13.4,1505.2,318.5,-0.8,1.8,2471.11,13.29,0.031,99.2
2023-01-10T00:46:03,42.805,6.029,-0.03,0.002,-0.012,102.0,101.0,101.0,13.4,1505.2,332.6,-0.8,1.8,2471.073,13.29,0.03,273.8
2023-01-10T00:49:03,42.805,6.029,0.022,0.006,0.011,101.0,102.0,101.0,13.4,1505.2,323.7,-0.8,1.8,2471.095,13.29,0.022,74.7
2023-01-10T00:52:03,42.805,6.029,0.019,-0.01,-0.015,100.0,102.0,101.0,13.4,1505.2,324.1,-0.8,1.8,2471.118,13.29,0.021,117.8
2023-01-10T00:55:03,42.805,6.029,0.004,0.008,-0.014,101.0,102.0,101.0,13.4,1505.2,321.0,-0.8,1.8,2471.089,13.29,0.008,26.6
2023-01-10T00:58:03,42.805,6.029,0.002,0.012,0.001,101.0,101.0,101.0,13.4,1505.2,339.3,-0.8,1.8,2471.082,13.29,0.012,9.5
2023-01-10T01:04:03,42.805,6.029,-0.007,-0.007,0.0,102.0,102.0,103.0,13.3,1505.2,337.0,-0.8,1.8,2471.144,13.28,0.009,225.0
2023-01-10T01:07:03,42.805,6.029,0.018,-0.004,-0.018,102.0,102.0,102.0,13.4,1505.2,320.1,-0.8,1.8,2471.135,13.28,0.018,102.5
2023-01-10T01:10:02,42.805,6.029,-0.025,0.002,-0.038,102.0,101.0,101.0,13.4,1505.2,335.5,-0.8,1.8,2471.072,13.28,0.025,274.6
2023-01-10T01:13:03,42.805,6.029,0.012,0.025,0.035,101.0,101.0,101.0,13.4,1505.2,319.4,-0.8,1.8,2471.091,13.29,0.027,25.6
2023-01-10T01:16:03,42.805,6.029,0.001,-0.019,-0.031,102.0,101.0,101.0,13.4,1505.2,330.6,-0.8,1.8,2471.084,13.29,0.019,177.0
2023-01-10T01:19:03,42.805,6.029,0.005,-0.009,-0.019,101.0,101.0,100.0,13.3,1505.2,327.8,-0.8,1.9,2471.086,13.29,0.01,150.9
2023-01-10T01:22:03,42.805,6.029,0.011,0.016,0.028,100.0,103.0,101.0,13.4,1505.2,329.4,-0.8,1.8,2471.076,13.29,0.019,34.5
2023-01-10T01:25:03,42.805,6.029,0.012,-0.029,-0.019,101.0,101.0,101.0,13.4,1505.2,322.4,-0.8,1.9,2471.055,13.29,0.031,157.5
2023-01-10T01:28:03,42.805,6.029,0.006,0.024,0.021,103.0,102.0,100.0,13.4,1505.2,319.5,-0.8,1.8,2471.067,13.29,0.024,14.0
2023-01-10T01:31:03,42.805,6.029,0.014,0.007,0.021,101.0,101.0,101.0,13.4,1505.2,325.0,-0.8,1.8,2471.051,13.29,0.015,63.4
2023-01-10T01:34:03,42.805,6.029,0.007,0.024,0.026,101.0,100.0,102.0,13.4,1505.2,316.6,-0.8,1.8,2471.034,13.29,0.025,16.3
2023-01-10T01:37:03,42.805,6.029,0.002,0.004,0.017,102.0,101.0,101.0,13.4,1505.2,321.2,-0.8,1.8,2471.068,13.29,0.004,26.6
2023-01-10T01:40:03,42.805,6.029,0.017,-0.01,-0.005,101.0,101.0,101.0,13.4,1505.2,330.6,-0.8,1.8,2471.071,13.29,0.019,120.5
2023-01-10T01:43:03,42.805,6.029,0.031,-0.006,-0.008,101.0,102.0,101.0,13.3,1505.2,323.4,-0.8,1.8,2471.068,13.29,0.031,101.0
2023-01-10T01:46:03,42.805,6.029,0.005,0.01,0.0,101.0,103.0,101.0,13.3,1505.2,331.9,-0.8,1.8,2471.077,13.29,0.011,26.6
2023-01-10T01:49:03,42.805,6.029,0.021,-0.008,-0.013,100.0,102.0,101.0,13.4,1505.2,331.5,-0.8,1.8,2471.073,13.29,0.022,110.9
2023-01-10T01:52:03,42.805,6.029,-0.009,0.006,-0.028,101.0,101.0,102.0,13.4,1505.2,331.8,-0.8,1.8,2471.052,13.29,0.01,303.7
2023-01-10T01:55:03,42.805,6.029,-0.006,-0.004,0.003,101.0,101.0,101.0,13.3,1505.2,330.7,-0.8,1.8,2471.069,13.29,0.007,236.3
2023-01-10T01:58:03,42.805,6.029,-0.004,0.007,-0.005,101.0,101.0,101.0,13.3,1505.2,322.3,-0.8,1.8,2471.048,13.29,0.008,330.3
2023-01-10T02:04:03,42.805,6.029,-0.023,0.02,0.008,100.0,102.0,101.0,13.4,1505.2,323.1,-0.8,1.8,2471.087,13.28,0.03,311.0
2023-01-10T02:07:03,42.805,6.029,-0.008,0.008,0.028,103.0,102.0,100.0,13.4,1505.2,332.3,-0.8,1.8,2471.112,13.28,0.011,315.0
2023-01-10T02:10:03,42.805,6.029,0.013,0.002,0.009,101.0,101.0,102.0,13.4,1505.2,327.6,-0.8,1.8,2471.075,13.28,0.013,81.3
2023-01-10T02:13:03,42.805,6.029,0.025,-0.009,-0.03,101.0,102.0,101.0,13.4,1505.2,332.6,-0.8,1.8,2471.094,13.28,0.026,109.8
2023-01-10T02:16:03,42.805,6.029,0.005,-0.013,-0.026,102.0,101.0,100.0,13.4,1505.2,335.0,-0.7,1.8,2471.042,13.29,0.013,159.0
2023-01-10T02:19:03,42.805,6.029,0.033,-0.03,-0.04,102.0,100.0,101.0,13.4,1505.2,327.0,-0.8,1.8,2471.058,13.29,0.044,132.3
2023-01-10T02:22:03,42.805,6.029,0.023,0.003,-0.004,101.0,101.0,101.0,13.4,1505.2,324.0,-0.8,1.8,2471.039,13.29,0.023,82.6
2023-01-10T02:25:03,42.805,6.029,-0.006,0.004,-0.006,102.0,101.0,102.0,13.4,1505.2,331.3,-0.8,1.8,2471.038,13.29,0.007,303.7
2023-01-10T02:28:03,42.805,6.029,-0.003,-0.016,-0.024,103.0,102.0,101.0,13.3,1505.2,324.4,-0.8,1.8,2471.02,13.29,0.016,190.6
2023-01-10T02:31:03,42.805,6.029,0.033,0.013,0.033,100.0,103.0,101.0,13.4,1505.2,332.2,-0.8,1.8,2471.03,13.29,0.035,68.5
2023-01-10T02:34:03,42.805,6.029,0.011,0.003,0.01,100.0,102.0,102.0,13.4,1505.2,318.5,-0.8,1.8,2471.04,13.29,0.011,74.7
2023-01-10T02:37:03,42.805,6.029,0.01,0.005,-0.004,101.0,101.0,101.0,13.4,1505.2,328.6,-0.8,1.8,2471.047,13.29,0.011,63.4
2023-01-10T02:40:03,42.805,6.029,0.003,-0.006,0.0,102.0,101.0,100.0,13.3,1505.2,326.7,-0.8,1.8,2471.03,13.29,0.006,153.4
2023-01-10T02:43:03,42.805,6.029,0.005,0.015,0.001,101.0,102.0,101.0,13.3,1505.2,327.9,-0.8,1.8,2471.011,13.29,0.015,18.4
2023-01-10T02:46:03,42.805,6.029,0.007,0.003,-0.035,101.0,101.0,101.0,13.3,1505.2,327.5,-0.8,1.8,2471.043,13.29,0.007,66.8
2023-01-10T02:49:03,42.805,6.029,-0.004,0.014,-0.005,101.0,102.0,101.0,13.3,1505.2,330.2,-0.7,1.8,2471.062,13.29,0.014,344.1
2023-01-10T02:52:03,42.805,6.029,0.015,0.012,0.016,101.0,101.0,102.0,13.4,1505.2,323.2,-0.7,1.8,2471.04,13.29,0.019,51.3
2023-01-10T02:55:03,42.805,6.029,0.0,0.025,0.036,101.0,101.0,101.0,13.3,1505.2,321.2,-0.8,1.8,2471.06,13.29,0.025,0.0
2023-01-10T02:58:03,42.805,6.029,-0.014,-0.004,-0.027,101.0,101.0,101.0,13.3,1505.2,334.6,-0.8,1.8,2471.045,13.29,0.014,254.1
2023-01-10T03:04:03,42.805,6.029,0.016,0.001,0.013,100.0,103.0,100.0,13.3,1505.2,316.9,-0.8,1.8,2471.112,13.28,0.016,86.4
2023-01-10T03:07:03,42.805,6.029,0.025,-0.013,-0.028,101.0,101.0,100.0,13.3,1505.2,331.9,-0.8,1.8,2471.071,13.28,0.028,117.5
2023-01-10T03:10:03,42.805,6.029,0.004,-0.004,0.005,101.0,101.0,100.0,13.4,1505.2,328.9,-0.7,1.8,2471.068,13.28,0.005,135.0
2023-01-10T03:13:03,42.805,6.029,0.016,0.0,0.02,101.0,102.0,100.0,13.4,1505.2,336.2,-0.7,1.8,2471.072,13.28,0.016,90.0
2023-01-10T03:16:03,42.805,6.029,0.025,-0.002,0.012,101.0,102.0,100.0,13.3,1505.2,321.0,-0.7,1.9,2471.047,13.29,0.025,94.6
2023-01-10T03:19:03,42.805,6.029,0.011,-0.009,-0.025,101.0,100.0,101.0,13.4,1505.2,329.1,-0.7,1.8,2471.05,13.29,0.014,129.3
2023-01-10T03:22:03,42.805,6.029,0.029,-0.004,0.009,102.0,101.0,100.0,13.4,1505.2,329.1,-0.8,1.8,2471.062,13.29,0.029,97.8
2023-01-10T03:25:03,42.805,6.029,0.024,0.003,0.009,101.0,101.0,101.0,13.4,1505.2,315.5,-0.8,1.8,2471.086,13.29,0.024,82.9
2023-01-10T03:28:03,42.805,6.029,-0.002,-0.01,-0.012,101.0,101.0,100.0,13.4,1505.2,315.0,-0.8,1.8,2471.04,13.29,0.01,191.3
2023-01-10T03:31:03,42.805,6.029,0.024,-0.031,-0.029,101.0,101.0,101.0,13.4,1505.2,329.6,-0.7,1.8,2471.076,13.29,0.039,142.3
2023-01-10T03:34:03,42.805,6.029,-0.008,0.01,0.015,101.0,101.0,100.0,13.3,1505.2,323.8,-0.8,1.8,2471.019,13.29,0.012,321.3
2023-01-10T03:37:03,42.805,6.029,0.004,0.013,-0.003,100.0,101.0,101.0,13.4,1505.2,330.5,-0.8,1.8,2471.022,13.29,0.013,17.1
2023-01-10T03:40:03,42.805,6.029,0.042,0.004,-0.007,103.0,101.0,101.0,13.4,1505.2,315.5,-0.8,1.8,2471.046,13.29,0.042,84.6
2023-01-10T03:43:03,42.805,6.029,0.002,-0.027,-0.038,101.0,101.0,100.0,13.4,1505.2,322.5,-0.8,1.8,2471.046,13.29,0.027,175.8
2023-01-10T03:46:03,42.805,6.029,0.017,-0.029,-0.049,100.0,101.0,101.0,13.4,1505.2,337.0,-0.8,1.8,2471.04,13.29,0.033,149.6
2023-01-10T03:49:03,42.805,6.029,0.024,-0.012,0.006,101.0,101.0,100.0,13.4,1505.2,330.3,-0.8,1.8,2471.055,13.29,0.026,116.6
2023-01-10T03:52:03,42.805,6.029,0.023,-0.024,-0.011,101.0,100.0,101.0,13.3,1505.2,327.8,-0.8,1.8,2471.032,13.29,0.033,136.2
2023-01-10T03:55:03,42.805,6.029,0.011,-0.024,-0.045,101.0,101.0,101.0,13.4,1505.2,324.4,-0.8,1.8,2471.078,13.29,0.026,155.4
2023-01-10T03:58:03,42.805,6.029,0.036,-0.006,-0.002,101.0,101.0,101.0,13.4,1505.2,323.4,-0.8,1.8,2471.055,13.29,0.036,99.5
2023-01-10T04:04:03,42.805,6.029,0.026,0.0,0.002,100.0,102.0,101.0,13.4,1505.2,328.2,-0.7,1.8,2471.11,13.28,0.026,90.0
2023-01-10T04:07:03,42.805,6.029,-0.002,-0.018,0.016,102.0,101.0,99.0,13.4,1505.2,328.5,-0.7,1.8,2471.074,13.28,0.018,186.3
2023-01-10T04:10:03,42.805,6.029,0.004,-0.026,-0.053,100.0,101.0,101.0,13.4,1505.2,330.4,-0.8,1.8,2471.079,13.28,0.026,171.3
2023-01-10T04:13:03,42.805,6.029,0.023,-0.022,-0.042,101.0,101.0,100.0,13.4,1505.2,335.3,-0.8,1.8,2471.096,13.28,0.031,133.7
2023-01-10T04:16:03,42.805,6.029,0.007,-0.014,-0.013,100.0,101.0,101.0,13.4,1505.2,328.2,-0.8,1.8,2471.077,13.29,0.015,153.4
2023-01-10T04:19:03,42.805,6.029,0.018,-0.018,-0.03,101.0,101.0,101.0,13.3,1505.2,320.7,-0.8,1.8,2471.06,13.29,0.025,135.0
2023-01-10T04:22:03,42.805,6.029,0.016,-0.003,-0.01,99.0,103.0,101.0,13.4,1505.2,321.4,-0.7,1.8,2471.07,13.29,0.016,100.6
2023-01-10T04:25:03,42.805,6.029,0.004,-0.005,0.024,100.0,100.0,101.0,13.4,1505.2,333.4,-0.8,1.8,2471.09,13.29,0.006,141.3
2023-01-10T04:28:03,42.805,6.029,0.021,-0.007,-0.032,101.0,100.0,101.0,13.3,1505.2,326.7,-0.8,1.8,2471.066,13.29,0.022,108.4
2023-01-10T04:31:03,42.805,6.029,0.016,-0.024,-0.002,101.0,99.0,101.0,13.4,1505.2,330.3,-0.7,1.8,2471.063,13.29,0.028,146.3
2023-01-10T04:34:03,42.805,6.029,0.013,-0.003,0.006,101.0,100.0,101.0,13.3,1505.2,323.7,-0.7,1.8,2471.033,13.29,0.013,103.0
2023-01-10T04:37:03,42.805,6.029,0.021,-0.008,-0.013,100.0,100.0,101.0,13.4,1505.2,321.2,-0.8,1.8,2471.068,13.29,0.022,110.9
2023-01-10T04:40:03,42.805,6.029,0.01,-0.002,-0.021,102.0,102.0,99.0,13.4,1505.2,330.5,-0.7,1.9,2471.078,13.29,0.01,101.3
2023-01-10T04:43:03,42.805,6.029,0.011,0.009,0.016,102.0,100.0,101.0,13.4,1505.2,328.7,-0.8,1.8,2471.057,13.29,0.014,50.7
2023-01-10T04:46:03,42.805,6.029,0.035,0.014,0.032,101.0,102.0,100.0,13.3,1505.2,327.6,-0.7,1.8,2471.107,13.29,0.037,68.2
2023-01-10T04:49:03,42.805,6.029,-0.008,0.016,0.03,99.0,101.0,101.0,13.4,1505.2,326.0,-0.8,1.8,2471.102,13.29,0.017,333.4
2023-01-10T04:52:03,42.805,6.029,-0.007,-0.002,-0.033,102.0,101.0,101.0,13.3,1505.2,331.7,-0.7,1.8,2471.075,13.29,0.007,254.1
2023-01-10T04:55:03,42.805,6.029,0.02,0.012,0.009,101.0,101.0,100.0,13.3,1505.2,325.8,-0.7,1.8,2471.076,13.29,0.023,59.0
2023-01-10T04:58:03,42.805,6.029,0.003,-0.019,-0.023,101.0,101.0,101.0,13.4,1505.2,324.0,-0.8,1.8,2471.075,13.29,0.019,171.0
2023-01-10T05:04:03,42.805,6.029,0.009,-0.007,-0.026,101.0,101.0,100.0,13.4,1505.2,325.1,-0.8,1.7,2471.114,13.28,0.011,127.9
2023-01-10T05:07:03,42.805,6.029,-0.016,0.03,0.016,102.0,101.0,101.0,13.4,1505.2,323.1,-0.8,1.9,2471.091,13.28,0.034,331.9
2023-01-10T05:10:03,42.805,6.029,0.011,-0.001,-0.01,100.0,102.0,101.0,13.4,1505.2,333.0,-0.8,1.8,2471.134,13.28,0.011,95.2
2023-01-10T05:13:03,42.805,6.029,0.021,-0.006,-0.036,101.0,102.0,100.0,13.4,1505.2,330.9,-0.7,1.8,2471.131,13.28,0.021,105.9
2023-01-10T05:16:03,42.805,6.029,0.023,-0.009,-0.022,100.0,101.0,100.0,13.4,1505.2,326.3,-0.8,1.8,2471.118,13.29,0.024,111.4
2023-01-10T05:19:03,42.805,6.029,-0.008,-0.012,-0.033,101.0,101.0,100.0,13.3,1505.2,327.7,-0.8,1.8,2471.137,13.29,0.014,213.7
2023-01-10T05:22:03,42.805,6.029,0.027,0.008,-0.015,100.0,101.0,100.0,13.3,1505.2,326.1,-0.8,1.8,2471.107,13.29,0.028,73.5
2023-01-10T05:25:03,42.805,6.029,0.03,-0.003,0.013,100.0,100.0,102.0,13.4,1505.2,321.8,-0.8,1.8,2471.124,13.29,0.03,95.7
2023-01-10T05:28:03,42.805,6.029,0.002,-0.015,-0.019,102.0,102.0,99.0,13.4,1505.2,327.1,-0.7,1.9,2471.128,13.29,0.015,172.4
2023-01-10T05:31:03,42.805,6.029,0.019,-0.006,-0.021,101.0,100.0,101.0,13.4,1505.2,331.5,-0.8,1.8,2471.09,13.29,0.019,107.5
2023-01-10T05:34:03,42.805,6.029,-0.003,-0.012,-0.039,100.0,100.0,101.0,13.4,1505.2,323.5,-0.8,1.8,2471.11,13.29,0.012,194.0
2023-01-10T05:37:03,42.805,6.029,0.012,0.01,0.018,100.0,100.0,100.0,13.3,1505.2,327.4,-0.7,1.9,2471.129,13.29,0.015,50.2
2023-01-10T05:40:03,42.805,6.029,0.012,-0.014,-0.025,100.0,101.0,101.0,13.3,1505.2,320.7,-0.7,1.8,2471.1,13.29,0.018,139.4
2023-01-10T05:43:03,42.805,6.029,0.016,0.0,-0.014,100.0,101.0,101.0,13.4,1505.2,319.0,-0.8,1.8,2471.097,13.29,0.016,90.0
2023-01-10T05:46:03,42.805,6.029,0.01,0.004,0.011,101.0,100.0,100.0,13.4,1505.2,324.0,-0.8,1.8,2471.109,13.29,0.01,68.2
2023-01-10T05:49:03,42.805,6.029,0.009,-0.016,0.013,100.0,100.0,100.0,13.4,1505.2,330.8,-0.7,1.9,2471.144,13.29,0.018,150.6
2023-01-10T05:52:03,42.805,6.029,0.018,0.006,0.007,101.0,100.0,100.0,13.3,1505.2,317.6,-0.8,1.8,2471.131,13.29,0.018,71.6
2023-01-10T05:55:03,42.805,6.029,0.02,-0.01,-0.01,101.0,100.0,101.0,13.4,1505.2,320.5,-0.7,1.8,2471.095,13.29,0.022,116.6
2023-01-10T05:58:03,42.805,6.029,0.004,-0.003,-0.021,100.0,101.0,100.0,13.4,1505.2,330.1,-0.7,1.8,2471.123,13.29,0.005,126.9
2023-01-10T06:04:03,42.805,6.029,0.005,-0.014,-0.032,100.0,101.0,100.0,13.4,1505.2,331.8,-0.8,1.8,2471.129,13.28,0.014,160.4
2023-01-10T06:07:03,42.805,6.029,-0.001,-0.01,-0.024,101.0,100.0,100.0,13.4,1505.2,330.1,-0.8,1.8,2471.166,13.28,0.01,185.7
2023-01-10T06:10:03,42.805,6.029,0.002,0.01,0.014,100.0,100.0,101.0,13.3,1505.2,323.4,-0.8,1.8,2471.162,13.28,0.01,11.3
2023-01-10T06:13:03,42.805,6.029,0.023,-0.016,-0.008,102.0,100.0,99.0,13.4,1505.2,325.5,-0.8,1.9,2471.157,13.28,0.028,124.8
2023-01-10T06:16:03,42.805,6.029,0.01,-0.005,-0.015,99.0,101.0,101.0,13.4,1505.2,329.1,-0.7,1.8,2471.135,13.28,0.011,116.6
2023-01-10T06:19:03,42.805,6.029,0.035,-0.024,-0.012,101.0,101.0,101.0,13.4,1505.2,327.1,-0.8,1.8,2471.128,13.29,0.042,124.4
2023-01-10T06:22:03,42.805,6.029,0.04,-0.011,0.0,101.0,100.0,100.0,13.4,1505.2,321.9,-0.8,1.8,2471.164,13.29,0.041,105.4
2023-01-10T06:25:03,42.805,6.029,0.021,-0.005,-0.026,99.0,101.0,101.0,13.4,1505.2,329.3,-0.8,1.8,2471.17,13.29,0.021,103.4
2023-01-10T06:28:03,42.805,6.029,0.032,-0.007,0.013,100.0,101.0,101.0,13.4,1505.2,328.5,-0.7,1.8,2471.152,13.29,0.032,102.3
2023-01-10T06:31:03,42.805,6.029,0.017,-0.025,0.007,102.0,101.0,101.0,13.3,1505.2,327.9,-0.7,1.8,2471.179,13.29,0.03,145.8
2023-01-10T06:34:03,42.805,6.029,0.017,-0.005,-0.004,100.0,101.0,100.0,13.4,1505.2,324.6,-0.8,1.8,2471.145,13.29,0.017,106.4
2023-01-10T06:37:03,42.805,6.029,0.018,-0.023,-0.016,100.0,100.0,100.0,13.4,1505.2,327.4,-0.7,1.8,2471.175,13.29,0.029,142.0
2023-01-10T06:40:03,42.805,6.029,0.025,-0.018,-0.025,100.0,101.0,101.0,13.4,1505.2,318.0,-0.7,1.8,2471.185,13.29,0.03,125.8
2023-01-10T06:43:03,42.805,6.029,0.003,-0.02,-0.026,101.0,100.0,100.0,13.4,1505.2,323.8,-0.8,1.9,2471.146,13.29,0.02,171.5
2023-01-10T06:46:03,42.805,6.029,-0.003,0.004,-0.001,101.0,100.0,101.0,13.3,1505.2,326.7,-0.7,1.8,2471.181,13.29,0.005,323.1
2023-01-10T06:49:03,42.805,6.029,0.022,-0.029,-0.048,101.0,101.0,100.0,13.4,1505.2,322.2,-0.7,1.8,2471.201,13.29,0.036,142.8
2023-01-10T06:52:03,42.805,6.029,0.018,0.0,-0.004,101.0,101.0,101.0,13.4,1505.2,324.2,-0.8,1.9,2471.187,13.29,0.018,90.0
2023-01-10T06:55:03,42.805,6.029,0.016,0.004,0.029,99.0,100.0,101.0,13.4,1505.2,334.5,-0.8,1.9,2471.228,13.29,0.016,76.0
2023-01-10T06:58:03,42.805,6.029,0.047,-0.032,-0.018,101.0,100.0,100.0,13.4,1505.2,320.7,-0.7,1.8,2471.189,13.29,0.056,124.2
2023-01-10T07:04:03,42.805,6.029,0.021,-0.024,-0.023,101.0,101.0,100.0,13.4,1505.2,330.2,-0.8,1.8,2471.219,13.28,0.031,138.8
2023-01-10T07:07:03,42.805,6.029,0.0,0.01,-0.009,101.0,100.0,100.0,13.4,1505.2,323.9,-0.8,1.8,2471.208,13.28,0.01,0.0
2023-01-10T07:10:03,42.805,6.029,0.023,0.001,-0.001,100.0,102.0,100.0,13.3,1505.2,329.9,-0.8,1.8,2471.207,13.28,0.023,87.5
2023-01-10T07:13:03,42.805,6.029,0.019,0.002,0.016,101.0,102.0,100.0,13.4,1505.2,328.5,-0.8,1.8,2471.222,13.28,0.019,84.0
2023-01-10T07:16:03,42.805,6.029,0.009,0.003,0.012,101.0,101.0,100.0,13.3,1505.2,333.7,-0.8,1.8,2471.235,13.28,0.009,71.6
2023-01-10T07:19:03,42.805,6.029,0.012,-0.002,0.003,103.0,98.0,100.0,13.4,1505.2,326.5,-0.8,1.8,2471.227,13.29,0.012,99.5
2023-01-10T07:22:03,42.805,6.029,0.016,-0.026,0.0,101.0,100.0,101.0,13.4,1505.2,325.4,-0.8,1.8,2471.203,13.29,0.03,148.4
2023-01-10T07:25:03,42.805,6.029,0.007,-0.009,0.0,100.0,101.0,100.0,13.3,1505.2,334.8,-0.8,1.8,2471.195,13.29,0.011,142.1
2023-01-10T07:28:03,42.805,6.029,0.011,-0.031,-0.03,99.0,101.0,101.0,13.4,1505.2,335.8,-0.8,1.8,2471.211,13.29,0.032,160.5
2023-01-10T07:31:03,42.805,6.029,0.012,-0.016,-0.034,101.0,101.0,100.0,13.4,1505.2,325.8,-0.8,1.8,2471.228,13.29,0.02,143.1
2023-01-10T07:34:03,42.805,6.029,0.038,-0.014,-0.009,100.0,100.0,102.0,13.4,1505.2,323.5,-0.8,1.8,2471.235,13.29,0.04,110.2
2023-01-10T07:37:03,42.805,6.029,0.037,-0.014,-0.012,102.0,100.0,100.0,13.4,1505.2,325.4,-0.7,1.8,2471.23,13.29,0.039,110.7
2023-01-10T07:40:03,42.805,6.029,0.006,-0.018,-0.024,101.0,100.0,100.0,13.3,1505.2,331.9,-0.8,1.8,2471.222,13.29,0.018,161.6
2023-01-10T07:43:03,42.805,6.029,0.042,-0.036,-0.058,100.0,102.0,101.0,13.4,1505.2,330.1,-0.7,1.8,2471.237,13.29,0.055,130.6
2023-01-10T07:46:03,42.805,6.029,0.008,-0.015,-0.037,101.0,100.0,101.0,13.4,1505.2,332.2,-0.8,1.8,2471.204,13.29,0.017,151.9
2023-01-10T07:49:03,42.805,6.029,0.025,-0.016,-0.032,101.0,101.0,100.0,13.4,1505.2,328.9,-0.8,1.8,2471.238,13.29,0.029,122.6
2023-01-10T07:52:03,42.805,6.029,0.012,-0.015,-0.005,100.0,101.0,100.0,13.4,1505.2,335.7,-0.8,1.8,2471.225,13.29,0.019,141.3
2023-01-10T07:55:03,42.805,6.029,0.003,0.002,-0.018,101.0,102.0,101.0,13.4,1505.2,334.1,-0.8,1.8,2471.217,13.29,0.003,56.3
2023-01-10T07:58:03,42.805,6.029,0.012,-0.012,-0.032,100.0,100.0,100.0,13.4,1505.2,323.7,-0.8,1.8,2471.257,13.29,0.016,135.0
2023-01-10T08:04:03,42.805,6.029,0.001,0.009,-0.008,102.0,101.0,100.0,13.3,1505.2,335.4,-0.8,1.8,2471.284,13.28,0.009,6.3
2023-01-10T08:07:03,42.805,6.029,0.008,-0.026,-0.035,102.0,101.0,101.0,13.4,1505.2,326.0,-0.8,1.8,2471.295,13.28,0.027,162.9
2023-01-10T08:10:03,42.805,6.029,0.009,-0.001,0.021,103.0,99.0,101.0,13.4,1505.2,329.4,-0.8,1.8,2471.255,13.28,0.009,96.3
2023-01-10T08:13:03,42.805,6.029,0.009,-0.011,-0.042,101.0,100.0,101.0,13.4,1505.2,334.2,-0.8,1.8,2471.28,13.28,0.014,140.7
2023-01-10T08:16:03,42.805,6.029,0.038,-0.009,-0.019,101.0,102.0,100.0,13.4,1505.2,322.7,-0.8,1.8,2471.259,13.29,0.039,103.3
2023-01-10T08:19:03,42.805,6.029,-0.003,-0.01,-0.025,100.0,101.0,100.0,13.4,1505.2,325.3,-0.8,1.8,2471.287,13.29,0.01,196.7
2023-01-10T08:22:03,42.805,6.029,0.01,0.007,-0.023,101.0,101.0,101.0,13.4,1505.2,329.0,-0.8,1.8,2471.279,13.29,0.012,55.0
2023-01-10T08:25:03,42.805,6.029,0.034,0.004,0.006,101.0,101.0,101.0,13.4,1505.2,319.9,-0.8,1.8,2471.247,13.29,0.034,83.3
2023-01-10T08:28:03,42.805,6.029,-0.016,0.039,0.007,101.0,101.0,101.0,13.4,1505.2,332.6,-0.8,1.8,2471.219,13.29,0.042,337.7
2023-01-10T08:31:03,42.805,6.029,0.016,-0.002,-0.025,101.0,100.0,102.0,13.3,1505.2,317.6,-0.7,1.8,2471.265,13.29,0.016,97.1
2023-01-10T08:34:03,42.805,6.029,-0.008,0.003,-0.011,101.0,101.0,101.0,13.4,1505.2,333.4,-0.8,1.8,2471.29,13.29,0.008,290.6
2023-01-10T08:37:03,42.805,6.029,0.017,-0.008,-0.012,102.0,101.0,101.0,13.3,1505.2,323.6,-0.8,1.8,2471.283,13.29,0.018,115.2
2023-01-10T08:40:03,42.805,6.029,0.001,-0.001,-0.012,101.0,101.0,100.0,13.4,1505.2,331.5,-0.7,1.8,2471.273,13.29,0.001,135.0
2023-01-10T08:43:03,42.805,6.029,0.039,-0.014,-0.016,100.0,100.0,100.0,13.4,1505.2,318.6,-0.8,1.8,2471.301,13.29,0.041,109.7
2023-01-10T08:46:03,42.805,6.029,-0.007,-0.003,-0.005,101.0,101.0,101.0,13.3,1505.2,323.5,-0.8,1.8,2471.265,13.29,0.007,246.8
2023-01-10T08:49:03,42.805,6.029,0.003,-0.031,-0.035,101.0,100.0,101.0,13.4,1505.2,334.6,-0.8,1.8,2471.282,13.29,0.031,174.5
2023-01-10T08:52:03,42.805,6.029,0.009,-0.006,-0.023,101.0,100.0,100.0,13.4,1505.2,326.7,-0.8,1.8,2471.245,13.29,0.01,123.7
2023-01-10T08:55:03,42.805,6.029,-0.006,0.005,0.004,100.0,101.0,101.0,13.4,1505.2,334.2,-0.8,1.8,2471.292,13.29,0.007,309.8
2023-01-10T08:58:03,42.805,6.029,0.028,0.023,0.037,102.0,99.0,100.0,13.4,1505.2,324.2,-0.8,1.8,2471.258,13.29,0.036,50.6
2023-01-10T09:04:03,42.805,6.029,0.018,-0.001,0.016,101.0,101.0,99.0,13.4,1505.2,322.9,-0.8,1.8,2471.27,13.28,0.018,93.2
2023-01-10T09:07:03,42.805,6.029,0.009,-0.012,-0.01,99.0,100.0,101.0,13.4,1505.2,318.5,-0.8,1.8,2471.322,13.28,0.015,143.1
2023-01-10T09:10:03,42.805,6.029,-0.005,-0.007,-0.024,100.0,100.0,100.0,13.4,1505.2,338.8,-0.8,1.8,2471.328,13.28,0.008,215.5
2023-01-10T09:13:03,42.805,6.029,0.006,0.016,0.034,100.0,101.0,101.0,13.4,1505.2,320.5,-0.8,1.8,2471.301,13.29,0.017,20.6
2023-01-10T09:16:03,42.805,6.029,0.009,0.003,0.007,102.0,101.0,100.0,13.4,1505.2,328.6,-0.8,1.8,2471.302,13.29,0.009,71.6
2023-01-10T09:19:03,42.805,6.029,0.026,-0.012,-0.016,102.0,101.0,101.0,13.4,1505.2,337.0,-0.8,1.8,2471.269,13.29,0.028,114.8
2023-01-10T09:22:03,42.805,6.029,0.008,-0.012,-0.036,101.0,102.0,101.0,13.3,1505.2,317.1,-0.7,1.8,2471.336,13.29,0.014,146.3
2023-01-10T09:25:03,42.805,6.029,0.01,0.018,0.009,101.0,101.0,100.0,13.4,1505.2,331.3,-0.8,1.8,2471.26,13.29,0.02,29.1
2023-01-10T09:28:03,42.805,6.029,0.0,-0.029,-0.018,102.0,98.0,101.0,13.3,1505.2,321.6,-0.8,1.8,2471.253,13.29,0.028,180.0
2023-01-10T09:31:03,42.805,6.029,0.018,-0.02,-0.03,101.0,102.0,101.0,13.4,1505.2,321.4,-0.8,1.8,2471.261,13.29,0.026,138.0
2023-01-10T09:34:03,42.805,6.029,0.008,-0.014,-0.02,101.0,101.0,100.0,13.4,1505.2,329.2,-0.8,1.8,2471.277,13.29,0.016,150.3
2023-01-10T09:37:03,42.805,6.029,0.023,-0.022,-0.035,100.0,101.0,101.0,13.3,1505.2,323.7,-0.7,1.8,2471.291,13.29,0.031,133.7
2023-01-10T09:40:03,42.805,6.029,0.053,-0.019,-0.009,101.0,101.0,101.0,13.3,1505.2,338.2,-0.7,1.8,2471.272,13.29,0.056,109.7
2023-01-10T09:43:03,42.805,6.029,0.034,-0.007,0.018,101.0,101.0,101.0,13.4,1505.2,330.6,-0.8,1.8,2471.309,13.29,0.034,101.6
2023-01-10T09:46:03,42.805,6.029,0.018,-0.004,-0.01,101.0,100.0,101.0,13.4,1505.2,326.3,-0.8,1.8,2471.306,13.29,0.018,102.5
2023-01-10T09:49:03,42.805,6.029,0.022,-0.018,0.0,100.0,102.0,102.0,13.4,1505.2,318.9,-0.7,1.8,2471.262,13.29,0.028,129.3
2023-01-10T09:52:03,42.805,6.029,-0.009,-0.001,-0.03,100.0,101.0,101.0,13.4,1505.2,320.9,-0.7,1.8,2471.259,13.29,0.009,263.7
2023-01-10T09:55:03,42.805,6.029,-0.002,0.002,-0.011,101.0,100.0,100.0,13.4,1505.2,326.7,-0.8,1.8,2471.247,13.29,0.002,315.0
2023-01-10T09:58:03,42.805,6.029,0.007,-0.004,0.001,102.0,102.0,100.0,13.4,1505.2,321.8,-0.8,1.8,2471.262,13.29,0.008,119.7